sat.trackr.live / text

‹ back to catalog

STARLINK-31639

NORAD 59261 · 2024-050H

PAYLOAD ACTIVE UNKNOWN

§ Identity

Operator
Country
US
Launch date
2024-03-19
Launch site
AFWTR
Launch vehicle
Mass (kg)
RCS (m²)

Purposes: comms

External: N2YO · Heavens-Above · Gunter

§ Orbital elements

Epoch: 2026-09-20T21:32:48.095232Z

Period
94.01 min
Inclination
53.1625°
Eccentricity
0.0001552
Mean motion
15.31704707 rev/d
Perigee alt
469.7 km
Apogee alt
471.8 km
Semi-major
6,848.9 km
B*
1.8294e-5
RAAN
353.0119°
Arg perigee
60.5520°
Mean anomaly
299.5636°
Rev number
14,045

§ Raw data

STARLINK-316391 59261U 24050H   26263.89777888  .00000202  00000+0  18294-4 0  99962 59261  53.1625 353.0119 0001552  60.5520 299.5636 15.31704707140459

JSON: /api/v1/satellites/59261 · /tle

For live sub-satellite position, see the globe view (requires WebGL).

§ Visibility from observer

Set your observer location to see the next 7 days of passes ≥ 10°. The values pass through the URL so the page stays shareable.

No JS? Fill the form by hand. The geolocation button needs JavaScript.